Le nostre stazioni meteo in Italia

Pubblicità
Il mio iltempo24.it
Ferrara, Italia (16138): Temperatura & dewpoint: 17.07.2018 05:00:00 - 23.07.2018 05:00:00 (CEST)Ferrara, Italia (16138): velocità del vento: 17.07.2018 05:00:00 - 23.07.2018 05:00:00 (CEST)Ferrara, Italia (16138): direzione del vento: 17.07.2018 05:00:00 - 23.07.2018 05:00:00 (CEST)Ferrara, Italia (16138): reduced air pressure: 17.07.2018 05:00:00 - 23.07.2018 05:00:00 (CEST)Ferrara, Italia (16138): visibility: 17.07.2018 05:00:00 - 23.07.2018 05:00:00 (CEST)
Data & Tempo tt [°C] td [°C] ff [km/h] ff [kn] dd ppp [hPa] vv [km]
23.07.2018 05:00:00 - - - - - - -
23.07.2018 04:00:00 - - - - - - -
23.07.2018 03:00:00 - - - - - - -
23.07.2018 02:00:00 - - - - - - -
23.07.2018 01:00:00 - - - - - - -
23.07.2018 00:00:00 - - - - - - -
22.07.2018 23:00:00 - - - - - - -
22.07.2018 22:00:00 - - - - - - -
22.07.2018 21:00:00 - - - - - - -
22.07.2018 20:00:00 25,4 16,8 0 0 N 1008,8 10
22.07.2018 19:00:00 26,0 18,0 - - - - 10
22.07.2018 18:00:00 26,0 17,0 - - - - 10
22.07.2018 17:00:00 28,4 16,7 0 0 N 1009,0 10
22.07.2018 16:00:00 30,0 18,0 - - - - 10
22.07.2018 15:00:00 30,0 18,0 9 5 NNO - 10
22.07.2018 14:00:00 29,2 18,0 9 5 OSO 1009,7 10
22.07.2018 13:00:00 29,0 19,0 13 7 O - 10
22.07.2018 12:00:00 28,0 19,0 9 5 SSE - 10
22.07.2018 11:00:00 26,0 19,2 0 0 N 1010,0 10
22.07.2018 10:00:00 24,0 19,0 5 3 S - 10
22.07.2018 09:00:00 22,0 18,0 8 4 SSE - 10
22.07.2018 08:00:00 19,4 17,0 4 2 SE 1009,9 10
22.07.2018 07:00:00 - - - - - - -
22.07.2018 06:00:00 - - - - - - -
22.07.2018 05:00:00 - - - - - - -
22.07.2018 04:00:00 - - - - - - -
22.07.2018 03:00:00 - - - - - - -
22.07.2018 02:00:00 - - - - - - -
22.07.2018 01:00:00 - - - - - - -
22.07.2018 00:00:00 - - - - - - -
21.07.2018 23:00:00 - - - - - - -
21.07.2018 22:00:00 - - - - - - -
21.07.2018 21:00:00 - - - - - - -
21.07.2018 20:00:00 22,8 16,4 9 5 O 1009,8 10
21.07.2018 19:00:00 25,0 18,0 8 4 NO - 10
21.07.2018 18:00:00 27,0 19,0 9 5 SSO - 10
21.07.2018 17:00:00 27,0 19,4 0 0 N 1009,9 10
21.07.2018 16:00:00 26,0 19,0 2 1 SSO - 10
21.07.2018 15:00:00 27,0 20,0 8 4 NE - 10
21.07.2018 14:00:00 27,0 19,6 8 4 NE 1010,6 10
21.07.2018 13:00:00 25,0 20,0 5 3 E - 10
21.07.2018 12:00:00 22,0 18,0 - - - - 10
21.07.2018 11:00:00 21,2 17,2 5 3 NE 1010,9 8
21.07.2018 10:00:00 21,0 17,0 2 1 NNE - 7
21.07.2018 09:00:00 20,0 18,0 2 1 NNO - 6
21.07.2018 08:00:00 19,2 17,7 0 0 N 1011,0 5
21.07.2018 07:00:00 - - - - - - -
21.07.2018 06:00:00 - - - - - - -
21.07.2018 05:00:00 - - - - - - -
21.07.2018 04:00:00 - - - - - - -
21.07.2018 03:00:00 - - - - - - -
21.07.2018 02:00:00 - - - - - - -
21.07.2018 01:00:00 - - - - - - -
21.07.2018 00:00:00 - - - - - - -
20.07.2018 23:00:00 - - - - - - -
20.07.2018 22:00:00 - - - - - - -
20.07.2018 21:00:00 - - - - - - -
20.07.2018 20:00:00 21,4 16,4 15 8 NE 1012,2 8
20.07.2018 19:00:00 27,0 15,0 5 3 SSO - 10
20.07.2018 18:00:00 33,0 17,0 2 1 N - 10
20.07.2018 17:00:00 33,4 17,6 8 4 SSO 1010,2 10
20.07.2018 16:00:00 33,0 18,0 8 4 O - 10
20.07.2018 15:00:00 33,0 20,0 11 6 S - 10
20.07.2018 14:00:00 32,8 20,0 8 4 NNO 1011,9 10
20.07.2018 13:00:00 32,0 21,0 4 2 SE - 10
20.07.2018 12:00:00 30,0 20,0 4 2 SSO - 10
20.07.2018 11:00:00 28,6 20,1 5 3 OSO 1012,5 10
20.07.2018 10:00:00 26,0 19,0 4 2 NNE - 10
20.07.2018 09:00:00 23,0 17,0 5 3 SO - 10
20.07.2018 08:00:00 22,0 17,6 5 3 O 1012,3 10
20.07.2018 07:00:00 - - - - - - -
20.07.2018 06:00:00 - - - - - - -
20.07.2018 05:00:00 - - - - - - -
20.07.2018 04:00:00 - - - - - - -
20.07.2018 03:00:00 - - - - - - -
20.07.2018 02:00:00 - - - - - - -
20.07.2018 01:00:00 - - - - - - -
20.07.2018 00:00:00 - - - - - - -
19.07.2018 23:00:00 - - - - - - -
19.07.2018 22:00:00 - - - - - - -
19.07.2018 21:00:00 - - - - - - -
19.07.2018 20:00:00 31,2 13,9 0 0 N 1011,3 20
19.07.2018 19:00:00 32,0 15,0 2 1 N - 10
19.07.2018 18:00:00 33,0 16,0 5 3 ENE - 10
19.07.2018 17:00:00 33,4 17,2 8 4 SSO 1012,0 20
19.07.2018 16:00:00 33,0 20,0 4 2 S - 10
19.07.2018 15:00:00 33,0 20,0 8 4 SSE - 10
19.07.2018 14:00:00 32,0 20,3 4 2 O 1012,8 20
19.07.2018 13:00:00 31,0 20,0 8 4 OSO - 10
19.07.2018 12:00:00 29,0 19,0 4 2 SO - 10
19.07.2018 11:00:00 27,2 19,0 4 2 NO 1012,9 15
19.07.2018 10:00:00 25,0 18,0 4 2 SSE - 10
19.07.2018 09:00:00 22,0 16,0 4 2 ENE - 10
19.07.2018 08:00:00 19,4 17,4 0 0 N 1012,7 20
19.07.2018 07:00:00 - - - - - - -
19.07.2018 06:00:00 - - - - - - -
19.07.2018 05:00:00 - - - - - - -
19.07.2018 04:00:00 - - - - - - -
19.07.2018 03:00:00 - - - - - - -
19.07.2018 02:00:00 - - - - - - -
19.07.2018 01:00:00 - - - - - - -
19.07.2018 00:00:00 - - - - - - -
18.07.2018 23:00:00 - - - - - - -
18.07.2018 22:00:00 - - - - - - -
18.07.2018 21:00:00 - - - - - - -
18.07.2018 20:00:00 30,4 14,5 0 0 N 1011,4 20
18.07.2018 19:00:00 31,0 15,0 4 2 S - 10
18.07.2018 18:00:00 32,0 15,0 4 2 ONO - 10
18.07.2018 17:00:00 32,4 15,9 4 2 SO 1012,4 20
18.07.2018 16:00:00 32,0 16,0 8 4 O - 10
18.07.2018 15:00:00 32,0 16,0 5 3 OSO - 10
18.07.2018 14:00:00 31,8 17,3 5 3 SSO 1013,5 20
18.07.2018 13:00:00 31,0 19,0 4 2 SSO - 10
18.07.2018 12:00:00 29,0 19,0 5 3 ESE - 10
18.07.2018 11:00:00 27,4 19,7 4 2 N 1013,8 15
18.07.2018 10:00:00 24,0 19,0 0 0 N - 10
18.07.2018 09:00:00 21,0 17,0 4 2 O - 10
18.07.2018 08:00:00 19,2 15,5 8 4 ONO 1013,6 30
18.07.2018 07:00:00 - - - - - - -
18.07.2018 06:00:00 - - - - - - -
18.07.2018 05:00:00 - - - - - - -
18.07.2018 04:00:00 - - - - - - -
18.07.2018 03:00:00 - - - - - - -
18.07.2018 02:00:00 - - - - - - -
18.07.2018 01:00:00 - - - - - - -
18.07.2018 00:00:00 - - - - - - -
17.07.2018 23:00:00 - - - - - - -
17.07.2018 22:00:00 - - - - - - -
17.07.2018 21:00:00 - - - - - - -
17.07.2018 20:00:00 27,8 15,5 0 0 N 1010,9 30
17.07.2018 19:00:00 28,0 16,0 5 3 SO - 10
17.07.2018 18:00:00 29,0 17,0 4 2 N - 10
17.07.2018 17:00:00 28,8 18,0 8 4 S 1011,3 15
17.07.2018 16:00:00 29,0 19,0 8 4 SSO - 10
17.07.2018 15:00:00 29,0 19,0 5 3 SO - 10
17.07.2018 14:00:00 28,0 19,0 5 3 NO 1011,7 15
17.07.2018 13:00:00 27,0 19,0 5 3 ONO - 10
17.07.2018 12:00:00 25,0 19,0 9 5 O - 10
17.07.2018 11:00:00 23,2 18,3 9 5 OSO 1011,5 10
17.07.2018 10:00:00 21,0 18,0 9 5 O - 10
17.07.2018 09:00:00 19,0 16,0 5 3 S - 4,0
17.07.2018 08:00:00 16,8 15,5 4 2 SO 1011,1 4,0
17.07.2018 07:00:00 - - - - - - -
17.07.2018 06:00:00 - - - - - - -
17.07.2018 05:00:00 - - - - - - -

tt = Temperatura
td = dewpoint
ff = velocità del vento
dd = direzione del vento
ppp = reduced air pressure
vv = visibility

Stazioni seguenti

WeatherPro
AMSI
MeteoEarth